TimeCDT,TemperatureF,Dew PointF,Humidity,Sea Level PressureIn,VisibilityMPH,Wind Direction,Wind SpeedMPH,Gust SpeedMPH,PrecipitationIn,Events,Conditions,WindDirDegrees,DateUTC
12:13 AM,57.2,48.2,72,30.11,10.0,NW,5.8,-,N/A,,Clear,310,2013-08-22 05:13:00
12:33 AM,57.2,48.2,72,30.11,10.0,NW,3.5,-,N/A,,Clear,320,2013-08-22 05:33:00
12:53 AM,55.4,48.2,77,30.12,10.0,NNW,6.9,-,N/A,,Clear,330,2013-08-22 05:53:00
1:13 AM,55.4,48.2,77,30.12,10.0,NNW,6.9,-,N/A,,Clear,330,2013-08-22 06:13:00
1:33 AM,55.4,48.2,77,30.12,10.0,North,8.1,-,N/A,,Clear,350,2013-08-22 06:33:00
1:53 AM,55.4,48.2,77,30.13,10.0,North,5.8,-,N/A,,Clear,350,2013-08-22 06:53:00
2:13 AM,53.6,48.2,82,30.13,10.0,NNW,3.5,-,N/A,,Clear,330,2013-08-22 07:13:00
2:33 AM,51.8,46.4,82,30.14,10.0,Calm,Calm,-,N/A,,Clear,0,2013-08-22 07:33:00
2:53 AM,48.2,46.4,93,30.14,10.0,WSW,3.5,-,N/A,,Clear,250,2013-08-22 07:53:00
3:13 AM,48.2,46.4,93,30.15,10.0,WNW,3.5,-,N/A,,Clear,290,2013-08-22 08:13:00
3:33 AM,48.2,46.4,93,30.14,10.0,Calm,Calm,-,N/A,,Clear,0,2013-08-22 08:33:00
3:53 AM,48.2,46.4,93,30.15,10.0,Calm,Calm,-,N/A,,Clear,0,2013-08-22 08:53:00
4:13 AM,48.2,46.4,93,30.16,10.0,Calm,Calm,-,N/A,,Clear,0,2013-08-22 09:13:00
4:33 AM,46.4,44.6,93,30.16,10.0,Calm,Calm,-,N/A,,Clear,0,2013-08-22 09:33:00
4:53 AM,46.4,44.6,93,30.16,10.0,Calm,Calm,-,N/A,,Clear,0,2013-08-22 09:53:00
5:13 AM,46.4,44.6,93,30.16,10.0,Calm,Calm,-,N/A,,Clear,0,2013-08-22 10:13:00
5:33 AM,46.4,44.6,93,30.16,10.0,Calm,Calm,-,N/A,,Clear,0,2013-08-22 10:33:00
5:53 AM,44.6,44.6,100,30.17,10.0,SW,3.5,-,N/A,,Clear,220,2013-08-22 10:53:00
6:13 AM,44.6,44.6,100,30.18,10.0,Calm,Calm,-,N/A,,Clear,0,2013-08-22 11:13:00
6:33 AM,44.6,42.8,93,30.19,10.0,Calm,Calm,-,N/A,,Clear,0,2013-08-22 11:33:00
6:53 AM,46.4,44.6,93,30.19,10.0,Calm,Calm,-,N/A,,Clear,0,2013-08-22 11:53:00
7:13 AM,48.2,44.6,87,30.20,10.0,Calm,Calm,-,N/A,,Clear,0,2013-08-22 12:13:00
7:33 AM,50.0,46.4,87,30.20,10.0,Calm,Calm,-,N/A,,Clear,0,2013-08-22 12:33:00
7:53 AM,53.6,48.2,82,30.20,10.0,Calm,Calm,-,N/A,,Clear,0,2013-08-22 12:53:00
8:13 AM,55.4,50.0,82,30.20,10.0,Calm,Calm,-,N/A,,Clear,0,2013-08-22 13:13:00
8:33 AM,57.2,51.8,82,30.20,10.0,Calm,Calm,-,N/A,,Clear,0,2013-08-22 13:33:00
8:53 AM,59.0,51.8,77,30.20,10.0,Calm,Calm,-,N/A,,Clear,0,2013-08-22 13:53:00
9:13 AM,60.8,51.8,72,30.20,10.0,North,4.6,-,N/A,,Clear,350,2013-08-22 14:13:00
9:33 AM,62.6,51.8,68,30.21,10.0,NNE,4.6,-,N/A,,Clear,20,2013-08-22 14:33:00
9:53 AM,64.4,51.8,64,30.20,10.0,North,4.6,-,N/A,,Clear,360,2013-08-22 14:53:00
10:13 AM,66.2,51.8,60,30.20,10.0,Calm,Calm,-,N/A,,Clear,0,2013-08-22 15:13:00
10:33 AM,68.0,51.8,56,30.20,10.0,NNW,3.5,-,N/A,,Clear,330,2013-08-22 15:33:00
10:53 AM,69.8,51.8,53,30.20,10.0,Calm,Calm,-,N/A,,Clear,0,2013-08-22 15:53:00
11:13 AM,71.6,51.8,50,30.20,10.0,Calm,Calm,-,N/A,,Clear,0,2013-08-22 16:13:00
11:33 AM,71.6,50.0,46,30.20,10.0,NNW,4.6,-,N/A,,Clear,340,2013-08-22 16:33:00
11:53 AM,73.4,48.2,41,30.20,10.0,North,4.6,-,N/A,,Clear,10,2013-08-22 16:53:00
12:13 PM,73.4,48.2,41,30.20,10.0,NE,3.5,-,N/A,,Clear,50,2013-08-22 17:13:00
12:33 PM,73.4,46.4,38,30.19,10.0,NNW,9.2,-,N/A,,Clear,330,2013-08-22 17:33:00
12:53 PM,75.2,48.2,38,30.19,10.0,North,3.5,-,N/A,,Clear,10,2013-08-22 17:53:00
1:13 PM,75.2,46.4,36,30.18,10.0,NNE,5.8,-,N/A,,Clear,30,2013-08-22 18:13:00
1:33 PM,75.2,44.6,34,30.18,10.0,NNW,5.8,24.2,N/A,,Clear,330,2013-08-22 18:33:00
1:53 PM,75.2,44.6,34,30.18,10.0,NW,8.1,-,N/A,,Clear,320,2013-08-22 18:53:00
2:13 PM,77.0,46.4,34,30.17,10.0,NNW,6.9,-,N/A,,Clear,340,2013-08-22 19:13:00
2:32 PM,75.2,46.4,36,30.16,10.0,WNW,8.1,-,N/A,,Clear,300,2013-08-22 19:32:00
2:53 PM,77.0,44.6,32,30.16,10.0,NW,5.8,-,N/A,,Clear,310,2013-08-22 19:53:00
3:13 PM,77.0,46.4,34,30.15,10.0,North,9.2,-,N/A,,Clear,10,2013-08-22 20:13:00
3:32 PM,77.0,44.6,32,30.15,10.0,Calm,Calm,-,N/A,,Clear,0,2013-08-22 20:32:00
3:53 PM,77.0,44.6,32,30.15,10.0,WNW,8.1,-,N/A,,Clear,290,2013-08-22 20:53:00
4:13 PM,77.0,44.6,32,30.15,10.0,WNW,5.8,-,N/A,,Clear,290,2013-08-22 21:13:00
4:32 PM,78.8,44.6,30,30.14,10.0,North,4.6,-,N/A,,Clear,360,2013-08-22 21:32:00
4:53 PM,78.8,44.6,30,30.14,10.0,West,4.6,-,N/A,,Clear,280,2013-08-22 21:53:00
5:13 PM,77.0,42.8,29,30.13,10.0,Calm,Calm,-,N/A,,Clear,0,2013-08-22 22:13:00
5:33 PM,78.8,44.6,30,30.13,10.0,Calm,Calm,-,N/A,,Clear,0,2013-08-22 22:33:00
5:53 PM,78.8,44.6,30,30.12,10.0,West,5.8,-,N/A,,Clear,260,2013-08-22 22:53:00
6:13 PM,77.0,44.6,32,30.12,10.0,Calm,Calm,-,N/A,,Clear,0,2013-08-22 23:13:00
6:33 PM,77.0,44.6,32,30.12,10.0,West,3.5,-,N/A,,Clear,280,2013-08-22 23:33:00
6:53 PM,77.0,44.6,32,30.12,10.0,Calm,Calm,-,N/A,,Clear,0,2013-08-22 23:53:00
7:13 PM,75.2,46.4,36,30.11,10.0,Calm,Calm,-,N/A,,Clear,0,2013-08-23 00:13:00
7:33 PM,75.2,48.2,38,30.11,10.0,Calm,Calm,-,N/A,,Clear,0,2013-08-23 00:33:00
7:53 PM,73.4,51.8,47,30.10,10.0,Calm,Calm,-,N/A,,Clear,0,2013-08-23 00:53:00
8:13 PM,68.0,55.4,64,30.10,10.0,ESE,3.5,-,N/A,,Clear,110,2013-08-23 01:13:00
8:33 PM,64.4,55.4,73,30.10,10.0,Calm,Calm,-,N/A,,Clear,0,2013-08-23 01:33:00
8:53 PM,62.6,55.4,77,30.11,10.0,East,4.6,-,N/A,,Clear,90,2013-08-23 01:53:00
9:13 PM,62.6,53.6,72,30.11,10.0,ESE,4.6,-,N/A,,Clear,110,2013-08-23 02:13:00
9:33 PM,62.6,51.8,68,30.11,10.0,SE,3.5,-,N/A,,Clear,130,2013-08-23 02:33:00
9:54 PM,59.0,53.6,82,30.11,10.0,SE,3.5,-,N/A,,Clear,130,2013-08-23 02:54:00
10:13 PM,57.2,53.6,88,30.12,10.0,Calm,Calm,-,N/A,,Clear,0,2013-08-23 03:13:00
10:33 PM,55.4,51.8,88,30.12,10.0,SE,4.6,-,N/A,,Clear,130,2013-08-23 03:33:00
10:54 PM,55.4,51.8,88,30.12,10.0,SE,5.8,-,N/A,,Clear,140,2013-08-23 03:54:00
11:13 PM,55.4,51.8,88,30.12,10.0,SE,8.1,-,N/A,,Clear,140,2013-08-23 04:13:00
11:33 PM,55.4,51.8,88,30.12,10.0,SE,6.9,-,N/A,,Clear,130,2013-08-23 04:33:00
11:54 PM,55.4,51.8,88,30.12,10.0,SE,6.9,-,N/A,,Clear,140,2013-08-23 04:54:00